Showing default

COSMOS 80, 1570

Orbit data source: Space-Track

COSMOS 80, 1570 is a payload satellite owned by OKB-10 (CIS) in LEO that was launched on Fri, 03 Sep 1965 UTC via a KOSMOS 65S3 launch vehicle from the Tyuratam Missile And Space Complex (TTMTR). Payload-class satellites include a variety of spacecraft equipped with specific instruments for various scientific and technological missions. These include communications satellites like Starlink; space stations such as the ISS; scientific satellites like the Hubble; Earth observation satellites from companies like Planet Labs, Umbra, and HawkEye 360; GPS; miniature CubeSats for education and research; and military/defense satellites.

Loading next visibility...
Identifier
1570, 1965-070A
Orbit
LEO
Last TLE update
5 hours ago
Origin
Manufacturer
OKB-10
Mission
Defense Communications
Bus & Motor
STRELA-1 11F610, Unknown motor
Mass
50 kg wet, 50 kg dry
Launch date (UTC)
1965-09-03 (60 years ago)
Launch vehicle
KOSMOS 65S3
Launch site
Tyuratam Missile And Space Complex (TTMTR)
Object type
Payload
Rocket body
Debris
Shape & HBR
Poly, 0.8 m
Radar Cross Section
0.731 m², Medium (>0.1 m² and < 1m²)

Expand to show TLE details & history

TLE from 5 hours ago
0 COSMOS 80
1 01570U 65070A   25182.64376260 -.00000086  00000-0  64681-4 0  9997
2 01570  56.0578 341.7049 0100239 205.6892 251.8474 12.52794135737424
Epoch: 2025-07-01T15:27Z
TLE epoch observation values (Epoch: 2025-07-01T15:27:01.088Z)
Latitude
55.65274°
Longitude
-68.52889°
Altitude
1,485.522 km
Speed
7.115 km/s
True Right ascension
05h 32m 38s
True Declination
55° 30' 26"
Sunlit
Object was in daylight at epoch
Visualization orbit readout
Latitude
-42.26995°
Longitude
46.99813°
Altitude
1,397.76 km
Speed
7.193 km/s
Apparent Right ascension
16h 06m 48s
Apparent Declination
-52° 26' 05"
Sunlit
Object is in daylight
Visualization observer readout
Local Sidereal Time
07:40:12
Azimuth
127.435° SE
Elevation
-51.976°
Doppler factor
1
Orbital elements
Apogee altitude
1,531.147 km
Perigee altitude
1,374.157 km
Semi-major axis
7,830.789 km
Eccentricity
0.01002
Inclination
56.0578°
RAAN
341.7049°
Arg. of periapsis
205.6892°
True anomaly
Unknown
Mean anomaly
251.8474°
Eccentric anomaly
Unknown
Mean motion
3.13209 °/min
Orbital period
114.94 mins
BSTAR
0.000064681
Loading maneuver chart data...
Loading SW <> Apogee altitude chart data...
Loading historical data...
Loading historical data...
Loading historical data...
Loading historical data...
Loading historical data...
Loading historical data...
Loading historical data...
Other satellites on launch #70 in the year 1965 (1965-09-03 UTC)

COSMOS 80 Visibility forecast

Observer location: undefined°, undefined°

Span
Click to sort rows by Start time (UTC) header in descending order
Start Az.
Max El. time (UTC)
Max El. Az.
Max El.
End time (UTC)
End Az.
16 mins2025-07-01 21:15:11.233Z309.896° NW2025-07-01 21:24:11.233Z216.481° SW41.659°2025-07-01 21:31:11.233Z154.666° SSE
5 mins2025-07-01 23:20:11.233Z263.882° W2025-07-01 23:22:11.233Z249.537° W12.295°2025-07-01 23:25:11.233Z228.273° WSW
16 mins2025-07-02 12:06:11.233Z195.297° SSW2025-07-02 12:14:11.233Z119.175° SE38.228°2025-07-02 12:22:11.233Z53.666° ENE
16 mins2025-07-02 14:06:11.233Z251.177° W2025-07-02 14:14:11.233Z326.397° NNW39.131°2025-07-02 14:22:11.233Z40.382° NE
13 mins2025-07-02 16:10:11.233Z300.257° NW2025-07-02 16:16:11.233Z349.356° N26.118°2025-07-02 16:23:11.233Z46.172° ENE
13 mins2025-07-02 18:13:11.233Z324.438° NNW2025-07-02 18:19:11.233Z18.641° NNE29.51°2025-07-02 18:26:11.233Z79.27° E
|